Location: La Tine
(46.4708°N, 7.0525°E)
Time: 00:33:03
(UTC+00:00)

Cosmos 1833 Rocket - Pass Details

Date: 19 January 2021
Orbit: 833 x 839 km, 71.0° (Epoch: 03 March)

Event Time Altitude Azimuth Distance (km) Brightness Sun altitude
Rises 18:04:38 0° 340° (NNW) 3,391 6.0 -18.2°
Reaches altitude 10° 18:07:45 10° 357° (N) 2,454 5.0 -18.7°
Enters shadow 18:10:52 19° 30° (NNE) 1,874 4.1 -19.2°
